{"data":{"norad_id":54678,"epoch":"2026-05-25T05:34:22.939680Z","epoch_age_seconds":55223,"freshness":"FRESH","line1":"1 54678U 22166AN  26145.23220995  .00000090  00000+0  18575-3 0  9994","line2":"2 54678  87.9253 248.5560 0001970 102.5051 257.6303 13.21827308168496","mean_motion":13.21827308,"eccentricity":0.000197,"inclination_deg":87.9253,"raan_deg":248.556,"arg_perigee_deg":102.5051,"mean_anomaly_deg":257.6303,"bstar":0.00018575,"rev_number":16849,"period_min":108.94010066858,"perigee_km":1176.2598743797,"apogee_km":1179.2368932209,"semimajor_km":7555.8853838003,"source":"CELESTRAK","updated_at":"2026-05-25T13:38:22.638026Z"}}